Powrót do katalogu

COSMOS 1390

AktywnyMilitariaLEO
NORAD 13377·PAYLOAD·🇷🇺 Russia

Wystrzelony Jul 21, 1982 z Plesetsk Cosmodrome

Loading…

Następne Przeloty (najbliższe 24 godziny)

TLE

ŚwieżeSource: Space-Track

Epoka: Sep 14, 2026, 10:37 UTC

1 13377U 82073C   26257.44251373 -.00000028  00000-0 -71836-4 0  9993
2 13377  74.0130  64.8763 0030960 221.9665 165.3185 12.53379767 20057

Śledź COSMOS 1390 w czasie rzeczywistym z AllMySat

Download on the App Store